Torna al catalogo

ONEWEB-0375

AttivoComunicazioniPO
NORAD 49301·PAYLOAD·🇬🇧 United Kingdom

Lanciato Oct 14, 2021 da Vostochny Cosmodrome

Loading…

Prossimi Passaggi (prossime 24 ore)

TLE

AggiornatoSource: CelesTrak SupGP

Epoca: Sep 14, 2026, 15:39 UTC

1 49301C 21090Y   26257.65260833 -.00002876  00000+0 -70816-2 0  2579
2 49301  87.9137 256.5874 0002345 102.7415 295.7117 13.20774970    18

Traccia ONEWEB-0375 in tempo reale con AllMySat

Download on the App Store